STARLINK-38065, 69982

Orbit data source: Space-Track

STARLINK-38065, 69982 is a payload satellite owned by SpaceX/Seattle (US) in SSO that was launched on Sat, 11 Jul 2026 UTC via an FALCON 9 launch vehicle from the Air Force Western Test Range (AFWTR). Payload-class satellites include a variety of spacecraft equipped with specific instruments for various scientific and technological missions. These include communications satellites like Starlink; space stations such as the ISS; scientific satellites like the Hubble; Earth observation satellites from companies like Planet Labs, Umbra, and HawkEye 360; GPS; miniature CubeSats for education and research; and military/defense satellites.

Loading next visibility...
Identifier
69982, 2026-159H
Orbit
SSO
Country
Flag of USUS
Related business
Manufacturer
SpaceX/Seattle
Mission
Operational spacecraft
Bus & Motor
STARLINK V2MO, Unknown motor
Mass
575 kg wet, ~530 kg dry
Launch date (UTC)
2026-07-11 (2 months ago)
Launch vehicle
FALCON 9
Launch site
Air Force Western Test Range (AFWTR)
Object type
Payload
Rocket body
Debris
Shape & HBR
BOX + PAN, 17.7 m
Radar Cross Section
Large (>1 m²)

Expand to show TLE details & history
Last TLE update: 16 hours ago

TLE from 16 hours ago
0 STARLINK-38065
1 69982U 26159H   26264.32262064  .00029034  00000-0  53302-3 0  9996
2 69982  97.2862 106.1340 0000545 114.2448 245.8860 15.49217342 12579
Epoch: 2026-09-21T07:44Z
TLE epoch observation values (Epoch: 2026-09-21T07:44:34.423Z)
Latitude
-0.00003°
Longitude
-10.21353°
Altitude
422.299 km
Speed
7.658 km/s
True Right ascension
07h 04m 32s
True Declination
0° 00' 00"
Sunlit
Object was in daylight at epoch
Visualization orbit readout
Latitude
Unknown
Longitude
Unknown
Altitude
Unknown
Speed
Unknown
Apparent Right ascension
Unknown
Apparent Declination
Unknown
Sunlit
N/A
Visualization observer readout
Local Sidereal Time
16:23:01
Azimuth
Unknown
Elevation
Unknown
Doppler factor
Unknown
Orbital elements
Apogee altitude
416.306 km
Perigee altitude
415.566 km
Semi-major axis
6,794.073 km
Eccentricity
0.00005
Inclination
97.2862°
RAAN
106.134°
Arg. of periapsis
114.2448°
True anomaly
245.8803°
Mean anomaly
245.886°
Eccentric anomaly
245.88315°
Mean motion
3.87568 °/min
Orbital period
92.89 mins
BSTAR
0.00053302
Loading maneuver chart data...
Computing Atmospheric mass density...
Loading historical data...
Loading historical data...
Loading historical data...
Loading historical data...
Loading historical data...
Loading historical data...
Loading historical data...

Documentation

Showing up to 5 results
|